User: anonymous   Login
Location: Gombori
(14.9797°N, 2.9419°W)
Time: 22:08:42
(UTC+00:00)
Language:

Okean-O - Orbit

View from above orbital plane
View from above orbital plane
View from above satellite
View from above satellite

Ground track
Ground track

The orbit data is extracted from the following two-line orbital elements,

1 25860U 99039A   21300.58925589  .00000142  00000-0  27789-4 0  9992
2 25860  98.1712 333.0663 0001854  87.9538 272.1884 14.76773559198883
Epoch (UTC): 27 October 2021 14:08:31
Eccentricity: 0.0001854
inclination: 98.1712°
perigee height: 638 km
apogee height: 641 km
right ascension of ascending node: 333.0663°
argument of perigee: 87.9538°
revolutions per day: 14.76773559
mean anomaly at epoch: 272.1884°
orbit number at epoch: 19888

The dashed part of the orbit path shows where the satellite is in the earth's shadow,  

DLR